sat.trackr.live / text

‹ back to catalog

2024-085C

NORAD 59679 · 2024-085C

PAYLOAD ACTIVE UNKNOWN

§ Identity

Operator
Country
PRC
Launch date
2024-05-07
Launch site
TAISC
Launch vehicle
Mass (kg)
RCS (m²)

External: N2YO · Heavens-Above · Gunter

§ Orbital elements

Epoch: 2026-09-22T23:27:15.833376Z

Period
93.78 min
Inclination
97.3224°
Eccentricity
0.0026654
Mean motion
15.35530732 rev/d
Perigee alt
441.1 km
Apogee alt
477.6 km
Semi-major
6,837.5 km
B*
2.2999e-4
RAAN
341.1856°
Arg perigee
52.2592°
Mean anomaly
308.1061°
Rev number
13,264

§ Raw data

2024-085C1 59679U 24085C   26265.97726659  .00007953  00000+0  22999-3 0  99942 59679  97.3224 341.1856 0026654  52.2592 308.1061 15.35530732132640

JSON: /api/v1/satellites/59679 · /tle

For live sub-satellite position, see the globe view (requires WebGL).

§ Visibility from observer

Set your observer location to see the next 7 days of passes ≥ 10°. The values pass through the URL so the page stays shareable.

No JS? Fill the form by hand. The geolocation button needs JavaScript.